Location: Drebach
(50.6670°N, 13.0330°E)
Time: 06:46:30
(UTC+01:00)

ISS - Pass Details

Date: 29 January 2021
Orbit: 417 x 422 km, 51.6° (Epoch: 08 March)

Event Time Altitude Azimuth Distance (km) Brightness Sun altitude
Rises 18:01:30 0° 273° (W) 2,372 1.7 -10.6°
Reaches altitude 10° 18:03:36 10° 275° (W) 1,508 0.3 -10.9°
Maximum altitude 18:06:59 73° 1° (N) 447 -3.7 -11.4°
Enters shadow 18:09:15 20° 84° (E) 1,060 -2.4 -11.8°
